Watford City, ND

2:27 AM CDT on July 22, 2017 (GMT -0500)
Watford City

Weather History for KS25 - April, 2014

Change the Weather History Date:

Saturday, April 19, 2014

  Actual Average (KISN) Record (KISN)
Temperature  
Mean Temperature 46 °F -  
Max Temperature 59 °F 57 °F 87 °F (1910)
Min Temperature 32 °F 33 °F 6 °F (1928)
Degree Days  
Heating Degree Days 20    
Moisture  
Dew Point 33 °F    
Average Humidity 72    
Maximum Humidity 100    
Minimum Humidity 36    
Precipitation  
Precipitation 0.00 in - - ()
Sea Level Pressure  
Sea Level Pressure 29.85 in    
Wind  
Wind Speed 12 mph (West)    
Max Wind Speed 20 mph    
Max Gust Speed 31 mph    
Visibility 10 miles    
Events      
Averages and records for this station are not official NWS values.
T = Trace of Precipitation, MM = Missing Value Source: NWS Daily Summary

Daily Weather History Graph

Daily Weather History Graph

Search for Another Location

Airport or City:

Trip Planner

Search our weather history database for the weather conditions in past years. The results will help you decide how hot, cold, wet, or windy it might be!

Date:

Astronomy

Apr. 19, 2014 Rise Set
Actual Time 6:56 AM CDT 8:48 PM CDT
Civil Twilight 6:23 AM CDT 9:21 PM CDT
Nautical Twilight 5:42 AM CDT 10:02 PM CDT
Astronomical Twilight 4:58 AM CDT 10:47 PM CDT
Moon 12:45 AM CDT (4/19) 10:07 AM CDT (4/19)
Length of Visible Light 14h 58m
Length of Day
13h 52m
Waning Gibbous, 78% of the Moon is Illuminated
Apr 19
Waning Gibbous
Apr 22
Last Quarter
Apr 29
New
May 6
First Quarter
May 14
Full

Hourly Weather History & Observations

Time (CDT) Temp. Windchill Dew Point Humidity Pressure Visibility Wind Dir Wind Speed Gust Speed Precip Events Conditions
12:15 AM 41.0 °F 32.2 °F 39.2 °F 93% 29.73 in 10.0 mi WNW 18.4 mph 31.1 mph N/A   Mostly Cloudy
12:35 AM 41.0 °F 33.9 °F 39.2 °F 93% 29.73 in 10.0 mi WNW 12.7 mph 23.0 mph N/A   Overcast
12:55 AM 41.0 °F 34.3 °F 39.2 °F 93% 29.74 in 10.0 mi West 11.5 mph - N/A   Mostly Cloudy
1:15 AM 41.0 °F 37.1 °F 39.2 °F 93% 29.72 in 10.0 mi SW 5.8 mph - N/A   Mostly Cloudy
1:35 AM 39.2 °F 32.5 °F 39.2 °F 100% 29.73 in 10.0 mi SSW 10.4 mph - N/A   Clear
1:55 AM 39.2 °F 33.0 °F 39.2 °F 100% 29.72 in 10.0 mi WSW 9.2 mph - N/A   Clear
2:15 AM 37.4 °F 30.8 °F 37.4 °F 100% 29.72 in 10.0 mi WSW 9.2 mph - N/A   Clear
2:35 AM 37.4 °F 31.4 °F 37.4 °F 100% 29.72 in 10.0 mi SW 8.1 mph - N/A   Clear
2:55 AM 35.6 °F 28.6 °F 35.6 °F 100% 29.73 in 10.0 mi WSW 9.2 mph - N/A   Clear
3:15 AM 33.8 °F 29.6 °F 33.8 °F 100% 29.73 in 10.0 mi West 4.6 mph - N/A   Clear
3:35 AM 35.6 °F 28.6 °F 35.6 °F 100% 29.73 in 10.0 mi SW 9.2 mph - N/A   Clear
3:55 AM 35.6 °F 28.6 °F 33.8 °F 93% 29.73 in 10.0 mi SW 9.2 mph - N/A   Clear
4:15 AM 33.8 °F 26.4 °F 32.0 °F 93% 29.73 in 10.0 mi SW 9.2 mph - N/A   Clear
4:35 AM 33.8 °F 27.7 °F 32.0 °F 93% 29.73 in 10.0 mi WSW 6.9 mph - N/A   Clear
4:55 AM 32.0 °F 26.4 °F 32.0 °F 100% 29.73 in 10.0 mi WSW 5.8 mph - N/A   Clear
5:15 AM 32.0 °F 25.6 °F 32.0 °F 100% 29.74 in 10.0 mi WSW 6.9 mph - N/A   Clear
5:35 AM 32.0 °F 23.6 °F 32.0 °F 100% 29.74 in 10.0 mi SW 10.4 mph - N/A   Clear
5:55 AM 33.8 °F 27.0 °F 32.0 °F 93% 29.74 in 10.0 mi SW 8.1 mph - N/A   Clear
6:15 AM 33.8 °F 23.9 °F 32.0 °F 93% 29.75 in 10.0 mi SW 15.0 mph - N/A   Mostly Cloudy
6:35 AM 35.6 °F 26.6 °F 30.2 °F 81% 29.76 in 10.0 mi WSW 13.8 mph 19.6 mph N/A   Overcast
6:55 AM 35.6 °F 27.1 °F 30.2 °F 81% 29.77 in 10.0 mi WSW 12.7 mph - N/A   Mostly Cloudy
7:15 AM 35.6 °F 27.1 °F 30.2 °F 81% 29.78 in 10.0 mi WSW 12.7 mph 21.9 mph N/A   Overcast
7:35 AM 35.6 °F 27.5 °F 30.2 °F 81% 29.79 in 10.0 mi WSW 11.5 mph - N/A   Overcast
7:55 AM 37.4 °F 27.8 °F 32.0 °F 81% 29.80 in 10.0 mi West 17.3 mph 25.3 mph N/A   Overcast
8:15 AM 37.4 °F 27.2 °F 33.8 °F 87% 29.81 in 10.0 mi West 19.6 mph - N/A   Overcast
8:35 AM 39.2 °F 30.2 °F 35.6 °F 87% 29.81 in 10.0 mi West 17.3 mph 23.0 mph N/A   Overcast
8:55 AM 39.2 °F 31.2 °F 35.6 °F 87% 29.82 in 10.0 mi West 13.8 mph 27.6 mph N/A   Overcast
9:15 AM 39.2 °F 30.5 °F 35.6 °F 87% 29.84 in 10.0 mi West 16.1 mph 28.8 mph N/A   Overcast
9:35 AM 39.2 °F 32.0 °F 35.6 °F 87% 29.85 in 10.0 mi West 11.5 mph 21.9 mph N/A   Overcast
9:55 AM 39.2 °F 29.8 °F 35.6 °F 87% 29.86 in 10.0 mi West 18.4 mph 27.6 mph N/A   Overcast
10:15 AM 39.2 °F 29.6 °F 35.6 °F 87% 29.87 in 10.0 mi West 19.6 mph 26.5 mph N/A   Overcast
10:35 AM 41.0 °F 31.9 °F 35.6 °F 81% 29.87 in 10.0 mi West 19.6 mph 25.3 mph N/A   Overcast
10:55 AM 41.0 °F 32.2 °F 35.6 °F 81% 29.87 in 10.0 mi West 18.4 mph - N/A   Overcast
11:15 AM 42.8 °F 35.1 °F 37.4 °F 81% 29.88 in 10.0 mi West 16.1 mph 20.7 mph N/A   Overcast
11:35 AM 42.8 °F 34.8 °F 35.6 °F 76% 29.89 in 10.0 mi West 17.3 mph 23.0 mph N/A   Overcast
12:15 PM 44.6 °F 38.1 °F 35.6 °F 71% 29.90 in 10.0 mi WNW 13.8 mph 20.7 mph N/A   Overcast
12:35 PM 46.4 °F 39.0 °F 35.6 °F 66% 29.90 in 10.0 mi WNW 19.6 mph 25.3 mph N/A   Mostly Cloudy
12:55 PM 48.2 °F - 35.6 °F 62% 29.91 in 10.0 mi NW 13.8 mph 24.2 mph N/A   Mostly Cloudy
1:15 PM 48.2 °F - 35.6 °F 62% 29.91 in 10.0 mi WNW 15.0 mph 21.9 mph N/A   Mostly Cloudy
1:35 PM 48.2 °F - 33.8 °F 58% 29.91 in 10.0 mi West 13.8 mph 21.9 mph N/A   Mostly Cloudy
1:55 PM 50.0 °F - 35.6 °F 58% 29.91 in 10.0 mi West 17.3 mph 21.9 mph N/A   Mostly Cloudy
2:15 PM 50.0 °F - 33.8 °F 54% 29.91 in 10.0 mi WNW 11.5 mph 19.6 mph N/A   Mostly Cloudy
2:35 PM 51.8 °F - 33.8 °F 50% 29.92 in 10.0 mi West 17.3 mph 23.0 mph N/A   Mostly Cloudy
2:55 PM 53.6 °F - 33.8 °F 47% 29.92 in 10.0 mi WSW 15.0 mph 20.7 mph N/A   Scattered Clouds
3:15 PM 53.6 °F - 32.0 °F 44% 29.93 in 10.0 mi WNW 15.0 mph - N/A   Mostly Cloudy
3:35 PM 55.4 °F - 32.0 °F 41% 29.92 in 10.0 mi West 16.1 mph 21.9 mph N/A   Scattered Clouds
3:55 PM 55.4 °F - 32.0 °F 41% 29.92 in 10.0 mi WNW 16.1 mph 24.2 mph N/A   Partly Cloudy
4:15 PM 57.2 °F - 32.0 °F 38% 29.91 in 10.0 mi WSW 12.7 mph 21.9 mph N/A   Clear
4:35 PM 57.2 °F - 32.0 °F 38% 29.91 in 10.0 mi West 15.0 mph 20.7 mph N/A   Partly Cloudy
4:55 PM 57.2 °F - 32.0 °F 38% 29.91 in 10.0 mi West 11.5 mph 18.4 mph N/A   Clear
5:15 PM 57.2 °F - 32.0 °F 38% 29.91 in 10.0 mi West 11.5 mph 24.2 mph N/A   Clear
5:35 PM 57.2 °F - 32.0 °F 38% 29.91 in 10.0 mi West 15.0 mph 21.9 mph N/A   Clear
5:55 PM 59.0 °F - 32.0 °F 36% 29.91 in 10.0 mi WNW 13.8 mph 21.9 mph N/A   Clear
6:15 PM 57.2 °F - 32.0 °F 38% 29.91 in 10.0 mi WNW 12.7 mph 20.7 mph N/A   Clear
6:35 PM 57.2 °F - 32.0 °F 38% 29.91 in 10.0 mi West 10.4 mph 17.3 mph N/A   Clear
6:55 PM 59.0 °F - 32.0 °F 36% 29.91 in 10.0 mi West 13.8 mph 20.7 mph N/A   Clear
7:15 PM 57.2 °F - 32.0 °F 38% 29.91 in 10.0 mi WNW 9.2 mph - N/A   Clear
7:35 PM 57.2 °F - 32.0 °F 38% 29.91 in 10.0 mi WNW 9.2 mph - N/A   Clear
7:55 PM 57.2 °F - 32.0 °F 38% 29.91 in 10.0 mi NW 9.2 mph - N/A   Clear
8:15 PM 55.4 °F - 32.0 °F 41% 29.91 in 10.0 mi NNW 4.6 mph - N/A   Clear
8:35 PM 50.0 °F - 32.0 °F 50% 29.90 in 10.0 mi Calm Calm - N/A   Clear
8:55 PM 46.4 °F - 30.2 °F 53% 29.91 in 10.0 mi Calm Calm - N/A   Clear
9:15 PM 39.2 °F - 28.4 °F 65% 29.91 in 10.0 mi Calm Calm - N/A   Clear
9:35 PM 42.8 °F 41.1 °F 32.0 °F 66% 29.92 in 10.0 mi ESE 3.5 mph - N/A   Clear
9:55 PM 39.2 °F - 32.0 °F 75% 29.92 in 10.0 mi Calm Calm - N/A   Clear
10:15 PM 37.4 °F - 30.2 °F 75% 29.92 in 10.0 mi Calm Calm - N/A   Clear
10:35 PM 39.2 °F - 32.0 °F 75% 29.92 in 10.0 mi Calm Calm - N/A   Clear
10:55 PM 37.4 °F - 30.2 °F 75% 29.92 in 10.0 mi Calm Calm - N/A   Clear
11:15 PM 35.6 °F - 30.2 °F 81% 29.92 in 10.0 mi Calm Calm - N/A   Clear
11:35 PM 35.6 °F - 28.4 °F 75% 29.91 in 10.0 mi Calm Calm - N/A   Clear
11:55 PM 35.6 °F - 28.4 °F 75% 29.91 in 10.0 mi Calm Calm - N/A   Clear